Weather History for KMTN - November, 2013

Change the Weather History Date:

Sunday, November 24, 2013

  Actual Average Record
Temperature  
Mean Temperature 30 °F -  
Max Temperature 33 °F 50 °F 100 °F (2001)
Min Temperature 26 °F 35 °F 23 °F (2000)
Degree Days  
Heating Degree Days 36    
Moisture  
Dew Point 9 °F    
Average Humidity 43    
Maximum Humidity 51    
Minimum Humidity 25    
Precipitation  
Precipitation 0.00 in - - ()
Sea Level Pressure  
Sea Level Pressure 30.32 in    
Wind  
Wind Speed 18 mph (WNW)    
Max Wind Speed 29 mph    
Max Gust Speed 43 mph    
Visibility 10 miles    
Events      
Averages and records for this station are not official NWS values.
T = Trace of Precipitation, MM = Missing Value Source: NWS Daily Summary

Daily Weather History Graph

Daily Weather History Graph

Search for Another Location

Airport or City:

Trip Planner

Search our weather history database for the weather conditions in past years. The results will help you decide how hot, cold, wet, or windy it might be!

Date:

Astronomy

Nov. 24, 2013 Rise Set
Actual Time 6:59 AM EST 4:45 PM EST
Civil Twilight 6:30 AM EST 5:14 PM EST
Nautical Twilight 5:57 AM EST 5:47 PM EST
Astronomical Twilight 5:25 AM EST 6:19 PM EST
Moon 11:07 PM EST (11/24) 11:47 AM EST (11/24)
Length of Visible Light 10h 44m
Length of Day
9h 45m
Waning Gibbous, 61% of the Moon is Illuminated
Nov 24
Waning Gibbous
Nov 25
Last Quarter
Dec 2
New
Dec 9
First Quarter
Dec 17
Full

Hourly Weather History & Observations

Time (EST) Temp. Windchill Dew Point Humidity Pressure Visibility Wind Dir Wind Speed Gust Speed Precip Events Conditions
12:18 AM 32.0 °F 19.5 °F 12.2 °F 44% 30.19 in 10.0 mi WNW 21.9 mph 27.6 mph N/A   Scattered Clouds
12:39 AM 32.0 °F 20.8 °F 12.2 °F 44% 30.20 in 10.0 mi West 17.3 mph 21.9 mph N/A   Mostly Cloudy
12:57 AM 32.0 °F 22.1 °F 14.0 °F 48% 30.20 in 10.0 mi WNW 13.8 mph 25.3 mph N/A   Mostly Cloudy
1:18 AM 32.0 °F 20.1 °F 14.0 °F 48% 30.22 in 10.0 mi WNW 19.6 mph 28.8 mph N/A   Mostly Cloudy
1:39 AM 30.2 °F 17.8 °F 14.0 °F 51% 30.23 in 10.0 mi WNW 19.6 mph 26.5 mph N/A   Mostly Cloudy
1:57 AM 30.2 °F 18.5 °F 14.0 °F 51% 30.24 in 10.0 mi WNW 17.3 mph 24.2 mph N/A   Mostly Cloudy
2:18 AM 30.2 °F 18.5 °F 12.2 °F 47% 30.25 in 10.0 mi WNW 17.3 mph 25.3 mph N/A   Scattered Clouds
2:39 AM 30.2 °F 19.3 °F 12.2 °F 47% 30.25 in 10.0 mi WNW 15.0 mph 25.3 mph N/A   Clear
2:57 AM 28.4 °F 17.5 °F 12.2 °F 51% 30.25 in 10.0 mi West 13.8 mph - N/A   Scattered Clouds
3:18 AM 28.4 °F 17.0 °F 12.2 °F 51% 30.25 in 10.0 mi WNW 15.0 mph - N/A   Scattered Clouds
3:39 AM 28.4 °F 19.1 °F 12.2 °F 51% 30.25 in 10.0 mi West 10.4 mph - N/A   Scattered Clouds
3:57 AM 28.4 °F 19.7 °F 12.2 °F 51% 30.25 in 10.0 mi West 9.2 mph - N/A   Scattered Clouds
4:18 AM 28.4 °F 16.2 °F 10.4 °F 47% 30.25 in 10.0 mi West 17.3 mph 25.3 mph N/A   Scattered Clouds
4:39 AM 28.4 °F 15.8 °F 8.6 °F 43% 30.25 in 10.0 mi West 18.4 mph 24.2 mph N/A   Scattered Clouds
4:57 AM 28.4 °F 15.1 °F 8.6 °F 43% 30.26 in 10.0 mi West 20.7 mph 25.3 mph N/A   Clear
5:18 AM 28.4 °F 15.4 °F 8.6 °F 43% 30.27 in 10.0 mi West 19.6 mph 25.3 mph N/A   Clear
5:30 AM 28.4 °F 15.4 °F 8.6 °F 43% 30.27 in 10.0 mi West 19.6 mph 25.3 mph N/A   Clear
5:45 AM 26.6 °F 13.4 °F 8.6 °F 47% 30.28 in 10.0 mi West 18.4 mph 27.6 mph N/A   Clear
6:45 AM 26.6 °F 14.3 °F 6.8 °F 43% 30.31 in 10.0 mi West 16.1 mph 24.2 mph N/A   Partly Cloudy
7:45 AM 26.6 °F 11.7 °F 6.8 °F 43% 30.33 in 10.0 mi WNW 24.2 mph 35.7 mph N/A   Partly Cloudy
8:45 AM 28.4 °F 13.5 °F 6.8 °F 40% 30.35 in 10.0 mi WNW 26.5 mph 36.8 mph N/A   Scattered Clouds
9:45 AM 30.2 °F 16.2 °F 5.0 °F 34% 30.37 in 10.0 mi WNW 25.3 mph 35.7 mph N/A   Scattered Clouds
10:45 AM 32.0 °F 18.9 °F 3.2 °F 30% 30.38 in 10.0 mi WNW 24.2 mph 34.5 mph N/A   Scattered Clouds
11:45 AM 32.0 °F 17.9 °F 1.4 °F 27% 30.36 in 10.0 mi WNW 28.8 mph 42.6 mph N/A   Scattered Clouds
12:50 PM 33.8 °F 20.8 °F 3.2 °F 28% 30.36 in 10.0 mi WNW 26.5 mph 35.7 mph N/A   Scattered Clouds
1:45 PM - - - N/A% 30.36 in 10.0 mi WNW 19.6 mph 32.2 mph N/A   Scattered Clouds
2:45 PM 33.8 °F 22.2 °F 1.4 °F 25% 30.38 in 10.0 mi West 20.7 mph 26.5 mph N/A   Scattered Clouds
3:45 PM 32.0 °F 20.1 °F 1.4 °F 27% 30.39 in 10.0 mi WNW 19.6 mph 31.1 mph N/A   Scattered Clouds
4:45 PM 30.2 °F 17.8 °F -0.4 °F 27% - - WNW 19.6 mph 28.8 mph N/A   Scattered Clouds
5:45 PM 28.4 °F - 3.2 °F 34% - - North - - N/A   Scattered Clouds
6:45 PM 28.4 °F - 6.8 °F 40% - - North - - N/A   Scattered Clouds
7:45 PM 28.4 °F 18.0 °F 10.4 °F 47% - - West 12.7 mph 19.6 mph N/A   Scattered Clouds
8:44 PM 28.4 °F - 10.4 °F 47% - - North - - N/A   Scattered Clouds
9:45 PM 26.6 °F - 10.4 °F 51% - - North - - N/A   Scattered Clouds
10:21 PM 28.4 °F 17.5 °F 12.2 °F 51% 30.51 in 10.0 mi West 13.8 mph - N/A   Clear
10:39 PM 28.4 °F 20.4 °F 12.2 °F 51% 30.52 in 10.0 mi West 8.1 mph 12.7 mph N/A   Clear
11:00 PM 28.4 °F 19.1 °F 10.4 °F 47% 30.51 in 10.0 mi West 10.4 mph 18.4 mph N/A   Clear
11:21 PM 26.6 °F 16.8 °F 10.4 °F 51% 30.52 in 10.0 mi West 10.4 mph - N/A   Clear
11:42 PM 26.6 °F 17.5 °F 10.4 °F 51% 30.52 in 10.0 mi West 9.2 mph - N/A   Clear